Flag for U.S.A. Weather past 2 weeks in Woodstock, New York, U.S.A.

Now
14 °F

Sunny.


Feels Like: 14 °F
Forecast: 4 / 30 °F
Wind: No wind

Location: Dutchess County Airport

Current Time: Jan 29, 2015 at 10:22:24 AM

Latest Report: Jan 29, 2015 at 9:53 AM


Visibility: 10 mi

Pressure: 30.33 "Hg

Humidity: 58%

Dew point: 2 °F

Location of WoodstockLocation

Historic Weather in Woodstock — Graph

°F

Woodstock temperature yesterday

Maximum temperature yesterday: 30 °F (at 3:53 PM)
Minimum temperature yesterday: 4 °F (at 4:53 AM)
Average temperature yesterday: 17 °F

Past Weeks' High & Low Weather Summary

 TemperatureHumidityPressure
High41 °F (Jan 19, 10:53 AM)97% (Jan 18, 10:53 PM)30.54 "Hg (Jan 18, 10:53 PM)
Low-4 °F (Jan 29, 6:53 AM)31% (Jan 17, 2:53 PM)29.28 "Hg (Jan 24, 4:00 PM)
Average25 °F64%29.99 "Hg
* Reported Jan 14 8:53 AM — Jan 29 8:53 AM, Woodstock, Weather by CustomWeather, © 2014

Note: Actual official high and low records may vary slightly from our data, if they occured in-between our weather recording intervals... More about our weather records

Advertising

Woodstock weather history for previous 24 hours

 ConditionsComfort  
Time TempWeatherWind HumidityBarometerVisibility
8:53 AM
Jan 29
4 °FSunny.No wind80%30.35 "Hg7 mi
7:53 AM-2 °FSunny.No wind75%30.37 "Hg10 mi
6:53 AM-4 °FClear.No wind71%30.35 "Hg10 mi
5:53 AM-2 °FClear.No wind75%30.34 "Hg9 mi
4:53 AM-1 °FClear.No wind71%30.33 "Hg10 mi
3:53 AM0 °FClear.No wind71%30.33 "Hg10 mi
2:53 AM1 °FClear.3 mph75%30.33 "Hg10 mi
1:53 AM1 °FClear.No wind79%30.32 "Hg10 mi
12:53 AM0 °FClear.No wind79%30.32 "Hg10 mi
11:53 PM
Jan 28
5 °FClear.No wind76%30.30 "Hg10 mi
10:53 PM6 °FClear.No wind73%30.29 "Hg10 mi
9:53 PM9 °FClear.No wind76%30.27 "Hg10 mi
8:53 PM10 °FClear.No wind76%30.26 "Hg5 mi
7:53 PM14 °FClear.No wind67%30.23 "Hg9 mi
6:53 PM19 °FClear.No wind57%30.21 "Hg10 mi
5:53 PM25 °FClear.5 mph40%30.18 "Hg10 mi
4:53 PM27 °FSunny.7 mph39%30.14 "Hg10 mi
3:53 PM30 °FSunny.7 mph38%30.11 "Hg10 mi
2:53 PM29 °FSunny.10 mph38%30.09 "Hg10 mi
1:53 PM28 °FSunny.8 mph41%30.07 "Hg10 mi
12:53 PM27 °FSunny.12 mph39%30.06 "Hg10 mi
11:53 AM24 °FSunny.9 mph40%30.06 "Hg10 mi
10:53 AM22 °FSunny.10 mph42%30.06 "Hg10 mi
Weather by CustomWeather, © 2014

See weather overviewHow to use our weather pages